sat.trackr.live / text

‹ back to catalog

STARLINK-32599

NORAD 62048 · 2024-216S

PAYLOAD ACTIVE UNKNOWN

§ Identity

Operator
Country
US
Launch date
2024-11-21
Launch site
AFETR
Launch vehicle
Mass (kg)
RCS (m²)

Purposes: comms

External: N2YO · Heavens-Above · Gunter

§ Orbital elements

Epoch: 2026-09-21T06:37:12.271008Z

Period
94.27 min
Inclination
43.0006°
Eccentricity
0.0001443
Mean motion
15.27586539 rev/d
Perigee alt
482.0 km
Apogee alt
484.0 km
Semi-major
6,861.2 km
B*
2.8132e-4
RAAN
239.0525°
Arg perigee
268.6155°
Mean anomaly
91.4532°
Rev number
10,370

§ Raw data

STARLINK-325991 62048U 24216S   26264.27583647  .00007489  00000+0  28132-3 0  99932 62048  43.0006 239.0525 0001443 268.6155  91.4532 15.27586539103702

JSON: /api/v1/satellites/62048 · /tle

For live sub-satellite position, see the globe view (requires WebGL).

§ Visibility from observer

Set your observer location to see the next 7 days of passes ≥ 10°. The values pass through the URL so the page stays shareable.

No JS? Fill the form by hand. The geolocation button needs JavaScript.